sat.trackr.live / text

‹ back to catalog

STARLINK-2505

NORAD 48411 · 2021-038BL

PAYLOAD ACTIVE UNKNOWN

§ Identity

Operator
Country
US
Launch date
2021-05-04
Launch site
AFETR
Launch vehicle
Mass (kg)
RCS (m²)

Purposes: comms

External: N2YO · Heavens-Above · Gunter

§ Orbital elements

Epoch: 2026-09-20T03:17:39.729696Z

Period
94.01 min
Inclination
53.1597°
Eccentricity
0.0001076
Mean motion
15.31719813 rev/d
Perigee alt
469.9 km
Apogee alt
471.4 km
Semi-major
6,848.8 km
B*
3.5755e-5
RAAN
108.9302°
Arg perigee
105.6572°
Mean anomaly
254.4549°
Rev number
29,777

§ Raw data

STARLINK-25051 48411U 21038BL  26263.13726539  .00000745  00000+0  35755-4 0  99912 48411  53.1597 108.9302 0001076 105.6572 254.4549 15.31719813297777

JSON: /api/v1/satellites/48411 · /tle

For live sub-satellite position, see the globe view (requires WebGL).

§ Visibility from observer

Set your observer location to see the next 7 days of passes ≥ 10°. The values pass through the URL so the page stays shareable.

No JS? Fill the form by hand. The geolocation button needs JavaScript.